Regional Weather Roundup
Issued by NWS

Home | Current Version | Previous Version | Graphics & Text | Print | Product List | Glossary On
Versions: 1 2 3 4 5 6 7 8 9 10 11 12 13 14 15 16 17 18 19 20 21 22 23 24 25 26 27 28 29 30 31 32 33 34 35 36 37 38 39 40 41 42 43 44 45 46 47 48 49 50
736
ASUS43 KMPX 141110
RWRMN
WEATHER ROUNDUP FOR MINNESOTA
NATIONAL WEATHER SERVICE TWIN CITIES/CHANHASSEN MN
500 AM CST SUN FEB 14 2016


NOTE: "FAIR" INDICATES FEW OR NO CLOUDS BELOW 12,000 FEET WITH NO
SIGNIFICANT WEATHER AND/OR OBSTRUCTIONS TO VISIBILITY. N/A MEANS
CURRENT SKY AND/OR WEATHER CONDITIONS ARE NOT AVAILABLE.

MNZ060>063-068>070-141200-
   Twin Cities Metro

CITY           SKY/WX    TMP DP  RH WIND       PRES   REMARKS
TWIN CITIES    CLOUDY    10  -2  58 E16       30.12F WCI  -7
ST PAUL        CLOUDY    11  -2  56 SE15      30.16F WCI  -5
CRYSTAL        CLOUDY    11  -2  56 SE8       30.11F WCI  -1
BLAINE         CLOUDY    12   0  57 SE10G18   30.12F WCI  -1
LAKEVILLE      CLOUDY    10   3  72 SE12      30.11F WCI  -4
EDEN PRAIRIE   CLOUDY    12   0  58 E10       30.10F WCI  -1
SOUTH ST PAUL  CLOUDY    11  -2  54 SE9G17    30.15F WCI  -1
LAKE ELMO      CLOUDY    12   0  57 SE10      30.16F WCI  -1
$$
MNZ001>005-007-008-013>017-022>024-027-028-141200-
   Northwest Minnesota

CITY           SKY/WX    TMP DP  RH WIND       PRES   REMARKS
BEMIDJI        CLOUDY     7  -3  63 SE12      29.97F WCI  -9
HALLOCK        LGT SNOW  12   9  85 S21       29.90F WCI  -6
ROSEAU         FLURRIES  10   3  72 SE13      29.93F WCI  -5
WARROAD        CLOUDY     9   0  66 S12       29.96F WCI  -6
THIEF RVR FALL CLOUDY    12   3  67 S18       29.93F WCI  -5
CROOKSTON      LGT SNOW  12   9  85 S18       29.95F WCI  -5
FOSSTON        CLOUDY     9   1  72 SE10      29.94F WCI  -6
DETROIT LAKES  CLOUDY    12   5  73 S15       29.95F WCI  -4
MOORHEAD       MIX PCPN  12   9  85 S20       29.95F WCI  -6
PARK RAPIDS    CLOUDY     9  -1  64 SE15      29.97F WCI  -8
MAHNOMEN       FAIR      10   3  75 SE10G18   29.93F WCI  -4
$$
MNZ006-009>011-018-025>026-141200-
   North Central Minnesota

CITY           SKY/WX    TMP DP  RH WIND       PRES   REMARKS
BAUDETTE       CLOUDY     5  -8  55 SE12      29.97F WCI -11
FLAG ISLAND    CLOUDY     5  -2  72 S21       29.96F WCI -16
INTL FALLS     CLOUDY    -1 -14  53 SE8       30.04F WCI -15
WASKISH        CLOUDY     9  -4  56 SE10      29.99F WCI  -6
LONGVILLE      CLOUDY     7  -6  56 SE12      30.02F WCI  -9
GRAND RAPIDS   CLOUDY     1 -11  55 SE7       30.04F WCI -11
CRANE LAKE     CLOUDY   -20 -26  76 SE2       30.13F
ORR            CLOUDY    -2 -17  50 SE8       30.04F WCI -17
COOK           CLOUDY    -2 -15  55 E3        30.08F
WALKER         CLOUDY     7  -6  56 SE9G16    29.99F WCI  -7
$$
MNZ012-019>021-037-141200-
   Northeast Minnesota

CITY           SKY/WX    TMP DP  RH WIND       PRES   REMARKS
DULUTH         PTCLDY     0 -13  54 SE9       30.12F WCI -15
ELY            CLOUDY   -22 -27  76 SE3       30.13F
HIBBING        CLOUDY    -6 -14  68 SE6       30.09F WCI -19
EVELETH        CLOUDY   -22 -31  63 NE5       30.12F WCI -36
DULUTH HARBOR  CLOUDY     1  -8  66 CALM      30.23F
TWO HARBORS    CLOUDY   -15 -24  64 CALM      30.17F
SILVER BAY     CLOUDY   -20 -27  69 CALM      30.18F
GRAND MARAIS     N/A     16   2  54 S14       30.26F WCI   2
G MARAIS ARPRT CLOUDY     1  -6  71 S5        30.14F WCI  -8
$$
MNZ029>031-032-039>041-046>048-054>057-064-141200-
   West Central Minnesota

CITY           SKY/WX    TMP DP  RH WIND       PRES   REMARKS
FERGUS FALLS   LGT SNOW  10   7  85 SE16      30.00S WCI  -7
WHEATON        LGT SNOW  14  10  85 SE18      29.96F WCI  -3
MORRIS         LGT SNOW  12   9  85 SE20      29.96F WCI  -6
ALEXANDRIA     LGT SNOW   9   4  80 SE14      29.98F WCI  -7
ELBOW LAKE     LGT SNOW  11   9  89 E20       29.96F VSB 1   WCI  -7
WADENA         LGT SNOW   9   1  72 SE17      29.98F WCI -10
GLENWOOD       FLURRIES  10   7  85 SE16      29.99F WCI  -7
APPLETON       LGT SNOW  14  10  85 SE13      29.98S WCI   0
BENSON         FLURRIES  12   9  85 S14       29.99F WCI  -3
ORTONVILLE     LGT SNOW  12   9  85 SE8G17    29.95S WCI   1
MADISON        LGT SNOW  16  10  79 S17       29.97F VSB 1   WCI   0
WILLMAR        LGT SNOW  12  10  92 SE18      30.02F WCI  -5
$$
MNZ033>034-036-042>043-049>051-058-059-141200-
   Central Minnesota

CITY           SKY/WX    TMP DP  RH WIND       PRES   REMARKS
ST CLOUD       CLOUDY    10  -1  61 SE12      30.07F WCI  -5
SAUK CENTRE    FLURRIES  10   3  76 SE15      30.01F WCI  -7
PAYNESVILLE    CLOUDY    11   6  77 SE10G20   30.03F WCI  -2
AITKIN         CLOUDY     9  -9  43 SE8       30.06F WCI  -4
PINE RIVER     CLOUDY     7  -2  66 SE12      30.05F WCI  -9
BRAINERD       CLOUDY     7  -5  57 SE9       30.05F WCI  -7
STAPLES        CLOUDY     9   0  66 SE8       30.01F WCI  -4
LONG PRAIRIE   LGT SNOW   9   3  78 E9        30.01F WCI  -5
LITTLE FALLS   CLOUDY    10   0  61 SE10G16   30.05F WCI  -3
LITCHFIELD     CLOUDY    12   9  85 SE13      30.05F WCI  -3
BUFFALO        CLOUDY    11   1  65 E10       30.10F WCI  -3
MAPLE LAKE     CLOUDY    12   4  70 SE8       30.08F WCI   0
$$
MNZ037-044-045-052-053-141200-
   East Central Minnesota

CITY           SKY/WX    TMP DP  RH WIND       PRES   REMARKS
PRINCETON      CLOUDY    10   0  61 E10       30.09F WCI  -3
MORA           CLOUDY     9  -6  52 SE8       30.14F WCI  -4
CAMBRIDGE      CLOUDY    10  -2  56 CALM      30.11F
RUSH CITY      CLOUDY     8  -5  53 SE6       30.15F WCI  -2
MOOSE LAKE     CLOUDY     5  -9  51 SE6       30.13F WCI  -6
HINCKLEY       CLOUDY     7  -6  56 E6        30.14F WCI  -3
CLOQUET        CLOUDY    -2 -15  55 E5        30.12F WCI -12
MCGREGOR       CLOUDY     5  -8  56 SE9       30.09F WCI  -9
$$
MNZ071>073-080-081-089-090-097-098-141200-
   Southwest Minnesota

CITY           SKY/WX    TMP DP  RH WIND       PRES   REMARKS
MONTEVIDEO     LGT SNOW  12   9  85 S13G18    30.00F WCI  -3
GRANITE FALLS  LGT SNOW  15  11  87 SE15G22   30.00F WCI  -1
CANBY          LGT SNOW  17  14  88 SE14      29.95F WCI   2
MARSHALL       FLURRIES  14   9  80 S17       29.96F WCI  -3
REDWOOD FALLS  LGT SNOW  13   9  84 SE21      30.02F FOG     WCI  -5
OLIVIA         FLURRIES  16  10  79 SE18      30.01F WCI  -1
PIPESTONE      LGT SNOW  14   5  67 S15       29.89F VSB 1   WCI  -1
WINDOM         LGT SNOW  12  10  92 SE15G21   29.98S WCI  -4
WORTHINGTON    CLOUDY    12   7  79 SE18      29.94F WCI  -5
JACKSON        LGT SNOW  14  10  85 SE15G24   29.98F WCI  -1
TRACY          LGT SNOW  15  10  83 S15G25    29.95F WCI  -1
SLAYTON        LGT SNOW  12  10  95 SE21      29.92F WCI  -7
$$
MNZ065>067-074>077-082>085-091>093-141200-
   South Central Minnesota

CITY           SKY/WX    TMP DP  RH WIND       PRES   REMARKS
MANKATO        CLOUDY    12   7  79 SE20      30.06F WCI  -6
NEW ULM        CLOUDY    12   7  79 SE14      30.04F WCI  -3
ST JAMES       LGT SNOW  14  10  85 SE16      30.04S WCI  -2
FAIRMONT       CLOUDY    12   9  85 SE18      30.00F WCI  -5
GLENCOE        CLOUDY    13   9  81 E14       30.07F WCI  -2
FARIBAULT      CLOUDY    12   7  79 E16G22    30.11F WCI  -4
OWATONNA       CLOUDY    12   7  79 SE23      30.08F WCI  -7
WASECA         FLURRIES  14   9  79 SE18      30.08F WCI  -3
ALBERT LEA     LGT SNOW  12   9  85 SE16G23   30.07F WCI  -4
$$
MNZ078>079-086>088-094>096-141200-
   Southeast Minnesota

CITY           SKY/WX    TMP DP  RH WIND       PRES   REMARKS
ROCHESTER      CLOUDY     9   1  70 SE17      30.12F WCI  -9
RED WING       CLOUDY    10  -2  56 SE14      30.18F WCI  -5
STANTON        CLOUDY    13   2  62 E7        30.12F WCI   3
DODGE CENTER   CLOUDY     9   5  85 SE16G22   30.09F WCI  -9
WINONA         CLOUDY    10   0  61 SE10      30.24F WCI  -3
AUSTIN         LGT SNOW  10   9  92 SE13G20   30.10F WCI  -5
PRESTON        CLOUDY     8   2  74 SE10      30.14F WCI  -6
$$
ABBREVIATIONS USED IN REMARKS
   TC - TEMPERATURES IN CELSIUS
  WCI - WIND CHILL INDEX
   HX - HEAT INDEX
  VSB - VISIBILITY
$$




USA.gov is the U.S. government's official web portal to all federal, state and local government web resources and services.